466  
ASUS41 KBOX 080410  
RWRBOX  
 
REGIONAL WEATHER ROUNDUP  
NATIONAL WEATHER SERVICE BOSTON/NORTON MA  
1100 PM EST TUE FEB 07 2023  
 
NOTE: "FAIR" INDICATES FEW OR NO CLOUDS BELOW 12,000 FEET WITH NO  
SIGNIFICANT WEATHER AND/OR S TO VISIBILITY
.  
 
MAZALL-080500-  
EASTERN MASSACHUSETTS  
 
CITY SKY/WX TMP DP RH WIND PRES REMARKS
 
BOSTON CLOUDY 33 29 85 SW10 30.12F WCI 25  
BEVERLY CLOUDY 32 27 81 SW12 30.09R WCI 23  
LAWRENCE CLOUDY 31 25 78 S7 30.10F WCI 24  
BEDFORD CLOUDY 32 27 81 S7 30.08F WCI 26  
NORWOOD CLOUDY 35 29 78 S8 30.11F WCI 29  
MARSHFIELD CLOUDY 32 30 93 SW6 30.12F WCI 26  
PLYMOUTH CLOUDY 34 30 85 SW9 30.12F WCI 27  
TAUNTON N/A N/A N/A N/A MISG 30.14F  
NEW BEDFORD CLOUDY 36 33 89 SW7 30.14F WCI 30  

 
 
MAZALL-080500-  
CAPE COD AND THE ISLANDS  
 
CITY SKY/WX TMP DP RH WIND PRES REMARKS
 
FALMOUTH CLOUDY 34 30 86 SW5 30.14F WCI 30  
HYANNIS CLOUDY 33 29 85 S7 30.12F WCI 27  
CHATHAM CLOUDY 37 29 72 SW8 30.16F WCI 31  
PROVINCETOWN CLOUDY 34 30 85 S13 30.13F WCI 25  
NANTUCKET CLOUDY 36 31 82 SW13 30.18F WCI 27  
MARTHAS VNYRD CLOUDY 38 33 82 S9 30.15F WCI 31  

 
 
MAZALL-080500-  
CENTRAL AND WESTERN MASSACHUSETTS  
 
CITY SKY/WX TMP DP RH WIND PRES REMARKS
 
WORCESTER CLOUDY 32 29 88 SW16 30.04F WCI 21  
FITCHBURG CLOUDY 33 27 78 S8 30.08F WCI 26  
ORANGE CLOUDY 31 27 85 S7 30.06F WCI 24  
SPRINGFIELD MOCLDY 32 30 92 S7 30.07F WCI 25  
WESTFIELD PTCLDY 32 29 88 S8 30.07F WCI 25  
NORTH ADAMS CLOUDY 33 28 81 SE8 30.02F WCI 26  
PITTSFIELD CLOUDY 34 27 75 SW10 30.00F WCI 26  

 
 
RIZALL-080500-  
RHODE ISLAND  
 
CITY SKY/WX TMP DP RH WIND PRES REMARKS
 
PROVIDENCE LGT RAIN 32 30 92 S3 30.14F  
NEWPORT LGT RAIN 37 35 92 VRB5 30.16R  
BLOCK ISLAND LGT RAIN 39 37 93 SW16 30.18S WCI 30  
SMITHFIELD MIX PCPN 32 30 93 VRB5 30.11S WCI 27  
WESTERLY LGT RAIN 39 36 89 S9 30.15F  

 
 
CTZALL-080500-  
CONNECTICUT  
 
CITY SKY/WX TMP DP RH WIND PRES REMARKS
 
BRADLEY INTL MOCLDY 33 30 88 S8 30.09F WCI 26  
HARTFORD LGT RAIN 34 31 88 S6 30.12F WCI 29  
BRIDGEPORT LGT RAIN 38 35 89 S5 30.13F  
DANBURY MOCLDY 37 32 82 CALM 30.12F  
GROTON LGT RAIN 41 36 82 S10 30.14F  
NEW HAVEN LGT RAIN 39 36 89 CALM 30.12F FOG  
CHESTER LGT RAIN 36 36 100 S7 30.11F WCI 30  
MERIDEN MIX PCPN 35 32 88 S5 30.12F WCI 31  
WILLIMANTIC FRZ RAIN 33 31 92 S5 30.12F WCI 29  
OXFORD CLOUDY 33 32 96 SW7 30.10F WCI 27  

 
 
MEZ002-015-021-024-NHZ003-005-008-011-012-014-VTZ005-008-080500-  
NORTHERN NEW ENGLAND  
 
CITY SKY/WX TMP DP RH WIND PRES REMARKS
 
PORTLAND ME CLOUDY 27 25 92 S3 30.09F  
BANGOR ME SNOW 23 20 88 CALM 30.06F VSB 1/4  
CONCORD NH CLOUDY 28 25 88 SE6 30.05F WCI 22  
MANCHESTER NH CLOUDY 31 26 82 S5 30.06F WCI 26  
NASHUA NH CLOUDY 30 30 100 SE3 30.08F  
PORTSMOUTH NH CLOUDY 30 27 86 CALM 30.08S  
JAFFREY NH CLOUDY 31 28 89 SW8 30.01F WCI 23  
KEENE NH MOCLDY 30 28 93 CALM N/A  
BURLINGTON VT CLOUDY 36 27 69 S21G32 29.92F WCI 25  
MT. WASHINGTON BLWGSNOW 21 21 100 W67G90 N/A VSB 0 WCI -3  

 
 
NYZ052-076-080500-  
EASTERN NEW YORK  
 
CITY SKY/WX TMP DP RH WIND PRES REMARKS
 
ALBANY CLOUDY 36 27 69 S14 30.02F WCI 27  
NEW YORK CITY CLOUDY 41 33 73 SW7 30.14F  

 
 
ANZALL-080500-  
MARINE OBSERVATIONS  
 
STATION/POSITION TIME TEMP WIND PRES VSBY WAVE
 
AIR SEA DIR/SP/G HT/PER  
(UTC) (F) (DEG/KT/KT) (MB) (MI) (FT/S)  
BOSTON BUOY 0340 41 N/A 7/13  
BUZZARDS BAY 0300 38 210/ 13/ 14 1022.4F  
NANTUCKET SOUND 0350 37 37 210/ 10/ 12 1021.2F 1/ 2  
MASS BAY-STELLWA 0204 35 41 210/ 17/ 23 1021.2R 1 7/8 9/11  
ISLE OF SHOALS 0300 33 190/ 22/ 25 1018.5F  
S OF BLOCK IS 0326 43 N/A 6/13  

 
   
.....................KEY......................
 
 
SKY/WX - SKY CONDITION/PRESENT WEATHER  
TMP - TEMPERATURE IN FAHRENHEIT  
DWPT - DEWPOINT IN FAHRENHEIT  
RH - RELATIVE HUMIDITY IN PERCENT  
WIND - DIRECTION AND SPEED IN MPH  
PRES - MEAN SEA LEVEL PRESSURE IN INCHES OF HG  
WCI - WIND CHILL INDEX  
VSB - VISIBILITY IN MILES  
HX - HEAT INDEX  
TC - TEMPERATURE IN CELSIUS  
VRB - VARIABLE WIND DIRECTION  
N/A - NOT AVAILABLE  
 
 
CLICK HERE TO GO TO PREVIOUS BULLETINS.

The Nexlab MA Page
The Nexlab RI Page
The Nexlab NH Page
The Nexlab CT Page Main Text Page